| time (UTC) | temp F | wind direction | speed MPH | gust MPH | rain 1hr in | rain 24hr in | rain mn in | humidity % | barometer mb |
| 20260905182513 | 70 | 340 | 0.0 | 0.0 | 0.00 | 0.01 | 0.00 | 79 | 1010.3 |
| 20260905182014 | 70 | 326 | 0.0 | 0.0 | 0.00 | 0.01 | 0.00 | 79 | 1010.2 |
| 20260905181526 | 70 | 323 | 0.0 | 0.0 | 0.00 | 0.01 | 0.00 | 79 | 1010.2 |
| 20260905181019 | 70 | 281 | 0.0 | 0.0 | 0.00 | 0.01 | 0.00 | 79 | 1010.2 |
| 20260905180516 | 70 | 331 | 0.0 | 0.0 | 0.00 | 0.01 | 0.00 | 79 | 1010.2 |
| 20260905180028 | 69 | 293 | 0.0 | 0.0 | 0.00 | 0.01 | 0.00 | 79 | 1010.2 |
| 20260905175515 | 69 | 295 | 0.0 | 0.0 | 0.00 | 0.01 | 0.00 | 80 | 1010.1 |
| 20260905175019 | 69 | 337 | 0.0 | 0.0 | 0.00 | 0.01 | 0.00 | 80 | 1010.2 |
| 20260905174540 | 69 | 316 | 0.0 | 0.0 | 0.00 | 0.01 | 0.00 | 81 | 1010.2 |
| 20260905174017 | 69 | 302 | 0.0 | 0.0 | 0.00 | 0.01 | 0.00 | 80 | 1010.1 |
| 20260905173508 | 69 | 300 | 0.0 | 0.0 | 0.00 | 0.01 | 0.00 | 81 | 1010.1 |
| 20260905173015 | 69 | 300 | 0.0 | 0.0 | 0.00 | 0.01 | 0.00 | 80 | 1010.1 |
| 20260905172517 | 70 | 289 | 0.0 | 0.0 | 0.00 | 0.01 | 0.00 | 78 | 1010.0 |
| 20260905172002 | 70 | 313 | 0.0 | 0.0 | 0.00 | 0.01 | 0.00 | 78 | 1010.0 |
| 20260905171503 | 70 | 300 | 0.0 | 0.0 | 0.00 | 0.01 | 0.00 | 78 | 1009.9 |
| 20260905171006 | 70 | 360 | 0.0 | 0.0 | 0.00 | 0.01 | 0.00 | 77 | 1009.8 |
| 20260905170514 | 70 | 338 | 0.0 | 0.0 | 0.00 | 0.01 | 0.00 | 79 | 1009.8 |
| 20260905170003 | 71 | 321 | 0.0 | 0.0 | 0.00 | 0.01 | 0.00 | 77 | 1009.8 |
| 20260905165503 | 71 | 34 | 0.0 | 0.0 | 0.00 | 0.01 | 0.00 | 78 | 1009.8 |
| 20260905165004 | 71 | 271 | 0.0 | 0.0 | 0.00 | 0.01 | 0.00 | 78 | 1009.7 |
| 20260905164508 | 71 | 300 | 0.0 | 0.0 | 0.00 | 0.01 | 0.00 | 78 | 1009.7 |
| 20260905164008 | 70 | 319 | 0.0 | 0.0 | 0.00 | 0.01 | 0.00 | 80 | 1009.7 |
| 20260905163507 | 70 | 333 | 0.0 | 0.0 | 0.00 | 0.01 | 0.00 | 79 | 1009.8 |
| 20260905163014 | 70 | 276 | 0.0 | 0.0 | 0.00 | 0.01 | 0.00 | 78 | 1009.7 |
| 20260905162508 | 70 | 326 | 0.0 | 0.0 | 0.00 | 0.01 | 0.00 | 77 | 1009.7 |
| 20260905162011 | 70 | 302 | 0.0 | 0.0 | 0.00 | 0.01 | 0.00 | 78 | 1009.7 |
| 20260905161517 | 70 | 333 | 0.0 | 0.0 | 0.00 | 0.01 | 0.00 | 79 | 1009.7 |
| 20260905161019 | 71 | 283 | 0.0 | 0.0 | 0.00 | 0.01 | 0.00 | 78 | 1009.7 |
| 20260905160503 | 71 | 91 | 0.0 | 0.0 | 0.00 | 0.01 | 0.00 | 78 | 1009.6 |
| 20260905160003 | 71 | 289 | 0.0 | 0.0 | 0.00 | 0.01 | 0.00 | 76 | 1009.5 |
| 20260905155504 | 71 | 299 | 0.0 | 0.0 | 0.00 | 0.01 | 0.00 | 77 | 1009.4 |
| 20260905155003 | 71 | 199 | 0.0 | 0.0 | 0.00 | 0.01 | 0.00 | 76 | 1009.5 |
| 20260905154505 | 71 | 302 | 0.0 | 0.0 | 0.00 | 0.01 | 0.00 | 75 | 1009.4 |
| 20260905154004 | 71 | 269 | 0.0 | 0.0 | 0.00 | 0.01 | 0.00 | 76 | 1009.4 |
| 20260905153506 | 72 | 269 | 0.0 | 0.0 | 0.00 | 0.01 | 0.00 | 76 | 1009.3 |
| 20260905153012 | 72 | 269 | 0.0 | 0.0 | 0.00 | 0.01 | 0.00 | 73 | 1009.3 |
| 20260905152508 | 72 | 313 | 0.0 | 0.0 | 0.00 | 0.01 | 0.00 | 75 | 1009.2 |
| 20260905152012 | 72 | 302 | 0.0 | 0.0 | 0.00 | 0.01 | 0.00 | 73 | 1009.2 |
| 20260905151517 | 73 | 291 | 0.0 | 0.0 | 0.00 | 0.01 | 0.00 | 72 | 1009.2 |
| 20260905151012 | 72 | 25 | 0.0 | 0.0 | 0.00 | 0.01 | 0.00 | 74 | 1009.1 |
| 20260905150512 | 72 | 328 | 0.0 | 0.0 | 0.00 | 0.01 | 0.00 | 76 | 1009.0 |
| 20260905150028 | 71 | 323 | 0.0 | 0.0 | 0.00 | 0.01 | 0.00 | 78 | 1009.1 |
| 20260905145516 | 71 | 299 | 0.0 | 0.0 | 0.00 | 0.01 | 0.00 | 79 | 1009.1 |
| 20260905145003 | 71 | 323 | 0.0 | 0.0 | 0.00 | 0.01 | 0.00 | 79 | 1009.2 |
| 20260905144515 | 71 | 1 | 0.0 | 0.0 | 0.00 | 0.01 | 0.00 | 80 | 1009.2 |
| 20260905144005 | 72 | 1 | 0.0 | 0.0 | 0.00 | 0.01 | 0.00 | 79 | 1009.3 |
| 20260905143503 | 72 | 356 | 0.0 | 0.0 | 0.00 | 0.01 | 0.00 | 80 | 1009.3 |
| 20260905143018 | 72 | 255 | 0.0 | 0.0 | 0.00 | 0.01 | 0.00 | 80 | 1009.2 |
| 20260905142506 | 71 | 323 | 0.0 | 0.0 | 0.00 | 0.01 | 0.00 | 80 | 1009.3 |
| 20260905142010 | 71 | 323 | 0.0 | 0.0 | 0.00 | 0.01 | 0.00 | 78 | 1009.3 |
| 20260905141520 | 71 | 319 | 0.0 | 0.0 | 0.00 | 0.01 | 0.00 | 81 | 1009.3 |
| 20260905141014 | 71 | 246 | 0.0 | 0.0 | 0.00 | 0.01 | 0.00 | 80 | 1009.2 |
| 20260905140510 | 70 | 285 | 0.0 | 0.0 | 0.00 | 0.01 | 0.00 | 80 | 1009.2 |
| 20260905140020 | 70 | 264 | 0.0 | 0.0 | 0.00 | 0.01 | 0.00 | 81 | 1009.2 |
| 20260905135512 | 70 | 236 | 0.0 | 0.0 | 0.00 | 0.01 | 0.00 | 81 | 1009.2 |
| 20260905135014 | 70 | 316 | 0.0 | 0.0 | 0.00 | 0.01 | 0.00 | 83 | 1009.2 |
| 20260905134526 | 69 | 293 | 0.0 | 0.0 | 0.00 | 0.01 | 0.00 | 83 | 1009.3 |
| 20260905134004 | 69 | 288 | 0.0 | 0.0 | 0.00 | 0.01 | 0.00 | 83 | 1009.4 |
| 20260905133503 | 69 | 291 | 0.0 | 0.0 | 0.00 | 0.01 | 0.00 | 86 | 1009.3 |
| 20260905133005 | 68 | 1 | 0.0 | 0.0 | 0.00 | 0.01 | 0.00 | 85 | 1009.3 |
| 20260905132504 | 68 | 338 | 0.0 | 0.0 | 0.00 | 0.01 | 0.00 | 86 | 1009.3 |
| 20260905132006 | 68 | 338 | 0.0 | 0.0 | 0.00 | 0.01 | 0.00 | 86 | 1009.2 |
| 20260905131509 | 67 | 195 | 0.0 | 0.0 | 0.00 | 0.01 | 0.00 | 86 | 1009.3 |
| 20260905131010 | 67 | 300 | 0.0 | 0.0 | 0.00 | 0.01 | 0.00 | 86 | 1009.2 |
| 20260905130508 | 0 | 294 | 0.0 | 0.0 | 0.00 | 0.01 | 0.00 | 88 | 1009.2 |
| 20260905130016 | 0 | 294 | 0.0 | 0.0 | 0.00 | 0.01 | 0.00 | 88 | 1009.1 |
| 20260905125513 | 0 | 283 | 0.0 | 0.0 | 0.00 | 0.01 | 0.00 | 88 | 1009.0 |
| 20260905125014 | 65 | 302 | 0.0 | 0.0 | 0.00 | 0.01 | 0.00 | 89 | 1008.9 |
| 20260905124521 | 65 | 264 | 0.0 | 0.0 | 0.00 | 0.01 | 0.00 | 89 | 1008.9 |
| 20260905124016 | 65 | 264 | 0.0 | 0.0 | 0.00 | 0.01 | 0.00 | 89 | 1008.8 |
| 20260905123515 | 65 | 264 | 0.0 | 0.0 | 0.00 | 0.01 | 0.00 | 90 | 1008.8 |
| 20260905123029 | 65 | 264 | 0.0 | 0.0 | 0.00 | 0.01 | 0.00 | 90 | 1008.8 |
| 20260905122508 | 64 | 264 | 0.0 | 0.0 | 0.00 | 0.01 | 0.00 | 90 | 1008.8 |
| 20260905122005 | 64 | 274 | 0.0 | 0.0 | 0.00 | 0.01 | 0.00 | 90 | 1008.7 |
| 20260905121508 | 64 | 274 | 0.0 | 0.0 | 0.00 | 0.01 | 0.00 | 91 | 1008.7 |
| 20260905121005 | 63 | 274 | 0.0 | 0.0 | 0.00 | 0.01 | 0.00 | 91 | 1008.6 |
| 20260905120509 | 63 | 285 | 0.0 | 0.0 | 0.00 | 0.01 | 0.00 | 91 | 1008.6 |
| 20260905120011 | 63 | 262 | 0.0 | 0.0 | 0.00 | 0.01 | 0.00 | 92 | 1008.5 |
| 20260905115512 | 63 | 262 | 0.0 | 0.0 | 0.00 | 0.01 | 0.00 | 93 | 1008.7 |
| 20260905115014 | 62 | 262 | 0.0 | 0.0 | 0.00 | 0.01 | 0.00 | 93 | 1008.7 |
| 20260905114520 | 62 | 262 | 0.0 | 0.0 | 0.00 | 0.01 | 0.00 | 93 | 1008.7 |
| 20260905114014 | 62 | 262 | 0.0 | 0.0 | 0.00 | 0.01 | 0.00 | 93 | 1008.8 |
| 20260905113515 | 62 | 262 | 0.0 | 0.0 | 0.00 | 0.01 | 0.00 | 93 | 1008.7 |
| 20260905113026 | 62 | 262 | 0.0 | 0.0 | 0.00 | 0.01 | 0.00 | 93 | 1008.7 |
| 20260905112514 | 62 | 262 | 0.0 | 0.0 | 0.00 | 0.01 | 0.00 | 93 | 1008.7 |
| 20260905112016 | 61 | 262 | 0.0 | 0.0 | 0.00 | 0.01 | 0.00 | 93 | 1008.6 |
| 20260905111527 | 61 | 262 | 0.0 | 0.0 | 0.00 | 0.01 | 0.00 | 93 | 1008.6 |
| 20260905111003 | 61 | 262 | 0.0 | 0.0 | 0.00 | 0.01 | 0.00 | 93 | 1008.6 |
| 20260905110507 | 61 | 262 | 0.0 | 0.0 | 0.00 | 0.01 | 0.00 | 93 | 1008.6 |
| 20260905110014 | 61 | 262 | 0.0 | 0.0 | 0.00 | 0.01 | 0.00 | 93 | 1008.6 |
| 20260905105509 | 61 | 262 | 0.0 | 0.0 | 0.00 | 0.01 | 0.00 | 93 | 1008.6 |
| 20260905105009 | 61 | 262 | 0.0 | 0.0 | 0.00 | 0.01 | 0.00 | 93 | 1008.6 |
| 20260905104516 | 61 | 262 | 0.0 | 0.0 | 0.00 | 0.01 | 0.00 | 93 | 1008.5 |
| 20260905104011 | 61 | 262 | 0.0 | 0.0 | 0.00 | 0.01 | 0.00 | 92 | 1008.5 |
| 20260905103513 | 61 | 262 | 0.0 | 0.0 | 0.00 | 0.01 | 0.00 | 92 | 1008.4 |
| 20260905103030 | 61 | 262 | 0.0 | 0.0 | 0.00 | 0.01 | 0.00 | 92 | 1008.3 |
| 20260905102514 | 61 | 262 | 0.0 | 0.0 | 0.00 | 0.01 | 0.00 | 92 | 1008.4 |
| 20260905102014 | 61 | 262 | 0.0 | 0.0 | 0.00 | 0.01 | 0.00 | 92 | 1008.3 |
| 20260905101527 | 61 | 262 | 0.0 | 0.0 | 0.00 | 0.01 | 0.00 | 92 | 1008.2 |
| 20260905101015 | 61 | 262 | 0.0 | 0.0 | 0.00 | 0.01 | 0.00 | 92 | 1008.2 |
| 20260905100517 | 61 | 262 | 0.0 | 0.0 | 0.00 | 0.01 | 0.00 | 92 | 1008.1 |
| 20260905100036 | 61 | 262 | 0.0 | 0.0 | 0.00 | 0.01 | 0.00 | 91 | 1008.0 |
| 20260905095509 | 61 | 262 | 0.0 | 0.0 | 0.00 | 0.01 | 0.00 | 91 | 1008.1 |
| 20260905095006 | 62 | 262 | 0.0 | 0.0 | 0.00 | 0.01 | 0.00 | 91 | 1008.0 |
| 20260905094512 | 62 | 262 | 0.0 | 0.0 | 0.00 | 0.01 | 0.00 | 91 | 1008.0 |
| 20260905094007 | 62 | 262 | 0.0 | 0.0 | 0.00 | 0.01 | 0.00 | 91 | 1008.0 |
| 20260905093508 | 62 | 262 | 0.0 | 0.0 | 0.00 | 0.01 | 0.00 | 91 | 1008.1 |
| 20260905093016 | 62 | 262 | 0.0 | 0.0 | 0.00 | 0.01 | 0.00 | 91 | 1008.0 |
| 20260905092514 | 62 | 262 | 0.0 | 0.0 | 0.00 | 0.01 | 0.00 | 91 | 1008.0 |
| 20260905092014 | 62 | 262 | 0.0 | 0.0 | 0.00 | 0.01 | 0.00 | 91 | 1008.0 |
| 20260905091523 | 62 | 262 | 0.0 | 0.0 | 0.00 | 0.01 | 0.00 | 91 | 1007.9 |
| 20260905091015 | 62 | 262 | 0.0 | 0.0 | 0.00 | 0.01 | 0.00 | 91 | 1007.9 |
| 20260905090513 | 62 | 262 | 0.0 | 0.0 | 0.00 | 0.01 | 0.00 | 91 | 1008.0 |
| 20260905090027 | 62 | 262 | 0.0 | 0.0 | 0.00 | 0.01 | 0.00 | 91 | 1008.0 |
| 20260905085518 | 62 | 262 | 0.0 | 0.0 | 0.00 | 0.01 | 0.00 | 91 | 1008.0 |
| 20260905085018 | 62 | 262 | 0.0 | 0.0 | 0.00 | 0.01 | 0.00 | 91 | 1007.9 |
| 20260905084533 | 62 | 262 | 0.0 | 0.0 | 0.00 | 0.01 | 0.00 | 91 | 1008.0 |
| 20260905084009 | 62 | 262 | 0.0 | 0.0 | 0.00 | 0.01 | 0.00 | 91 | 1008.0 |
| 20260905083509 | 62 | 262 | 0.0 | 0.0 | 0.00 | 0.01 | 0.00 | 91 | 1008.0 |
| 20260905083014 | 62 | 262 | 0.0 | 0.0 | 0.00 | 0.01 | 0.00 | 91 | 1008.1 |
| 20260905082512 | 62 | 262 | 0.0 | 0.0 | 0.00 | 0.01 | 0.00 | 91 | 1008.1 |
| 20260905082003 | 62 | 262 | 0.0 | 0.0 | 0.00 | 0.01 | 0.00 | 91 | 1008.1 |
| 20260905081503 | 62 | 262 | 0.0 | 0.0 | 0.00 | 0.01 | 0.00 | 92 | 1008.1 |
| 20260905081003 | 62 | 262 | 0.0 | 0.0 | 0.00 | 0.01 | 0.00 | 92 | 1008.1 |
| 20260905080504 | 62 | 262 | 0.0 | 0.0 | 0.00 | 0.01 | 0.00 | 92 | 1008.1 |
| 20260905080004 | 63 | 262 | 0.0 | 0.0 | 0.00 | 0.01 | 0.00 | 92 | 1008.1 |
| 20260905075503 | 63 | 262 | 0.0 | 0.0 | 0.00 | 0.01 | 0.00 | 92 | 1008.1 |
| 20260905075003 | 63 | 262 | 0.0 | 0.0 | 0.00 | 0.01 | 0.00 | 92 | 1008.1 |
| 20260905074514 | 63 | 262 | 0.0 | 0.0 | 0.00 | 0.01 | 0.00 | 93 | 1008.1 |
| 20260905074010 | 63 | 262 | 0.0 | 0.0 | 0.00 | 0.01 | 0.00 | 93 | 1008.1 |
| 20260905073507 | 63 | 262 | 0.0 | 0.0 | 0.00 | 0.01 | 0.00 | 93 | 1008.2 |
| 20260905073012 | 63 | 262 | 0.0 | 0.0 | 0.00 | 0.01 | 0.00 | 93 | 1008.2 |
| 20260905072509 | 63 | 262 | 0.0 | 0.0 | 0.00 | 0.01 | 0.00 | 93 | 1008.3 |
| 20260905072012 | 63 | 262 | 0.0 | 0.0 | 0.00 | 0.01 | 0.00 | 93 | 1008.3 |
| 20260905071523 | 63 | 262 | 0.0 | 0.0 | 0.00 | 0.01 | 0.00 | 93 | 1008.3 |
| 20260905071012 | 63 | 262 | 0.0 | 0.0 | 0.00 | 0.01 | 0.00 | 93 | 1008.4 |
| 20260905070502 | 63 | 262 | 0.0 | 0.0 | 0.00 | 0.01 | 0.00 | 93 | 1008.4 |
| 20260905070004 | 63 | 262 | 0.0 | 0.0 | 0.00 | 0.01 | 0.00 | 93 | 1008.5 |
| 20260905065503 | 63 | 262 | 0.0 | 0.0 | 0.00 | 0.01 | 0.00 | 94 | 1008.5 |
| 20260905065007 | 63 | 262 | 0.0 | 0.0 | 0.00 | 0.01 | 0.00 | 94 | 1008.6 |
| 20260905064504 | 63 | 262 | 0.0 | 0.0 | 0.00 | 0.01 | 0.00 | 93 | 1008.7 |
| 20260905064006 | 63 | 262 | 0.0 | 0.0 | 0.00 | 0.01 | 0.00 | 93 | 1008.8 |
| 20260905063505 | 64 | 262 | 0.0 | 0.0 | 0.00 | 0.01 | 0.00 | 93 | 1008.9 |
| 20260905063009 | 64 | 262 | 0.0 | 0.0 | 0.00 | 0.01 | 0.00 | 94 | 1008.8 |
| 20260905062510 | 64 | 262 | 0.0 | 0.0 | 0.00 | 0.01 | 0.00 | 94 | 1008.8 |
| 20260905062008 | 64 | 262 | 0.0 | 0.0 | 0.00 | 0.01 | 0.00 | 93 | 1008.7 |
| 20260905061516 | 64 | 262 | 0.0 | 0.0 | 0.00 | 0.01 | 0.00 | 93 | 1008.7 |
| 20260905061013 | 64 | 262 | 0.0 | 0.0 | 0.00 | 0.01 | 0.00 | 94 | 1008.8 |
| 20260905060513 | 64 | 262 | 0.0 | 0.0 | 0.00 | 0.01 | 0.00 | 94 | 1008.8 |
| 20260905060020 | 64 | 262 | 0.0 | 0.0 | 0.00 | 0.01 | 0.00 | 94 | 1008.7 |
| 20260905055515 | 65 | 262 | 0.0 | 0.0 | 0.00 | 0.01 | 0.00 | 94 | 1008.8 |
| 20260905055004 | 65 | 262 | 0.0 | 0.0 | 0.00 | 0.01 | 0.00 | 94 | 1008.8 |
| 20260905054504 | 65 | 262 | 0.0 | 0.0 | 0.00 | 0.01 | 0.00 | 94 | 1008.7 |
| 20260905054003 | 65 | 262 | 0.0 | 0.0 | 0.00 | 0.01 | 0.00 | 94 | 1008.8 |
| 20260905053503 | 65 | 262 | 0.0 | 0.0 | 0.00 | 0.01 | 0.00 | 94 | 1008.8 |
| 20260905053007 | 65 | 262 | 0.0 | 0.0 | 0.00 | 0.01 | 0.00 | 94 | 1008.8 |
| 20260905052506 | 65 | 262 | 0.0 | 0.0 | 0.00 | 0.01 | 0.00 | 95 | 1008.7 |
| 20260905052006 | 65 | 262 | 0.0 | 0.0 | 0.00 | 0.01 | 0.00 | 95 | 1008.7 |
| 20260905051511 | 65 | 262 | 0.0 | 0.0 | 0.00 | 0.01 | 0.00 | 95 | 1008.7 |
| 20260905051009 | 65 | 262 | 0.0 | 0.0 | 0.00 | 0.01 | 0.00 | 96 | 1008.8 |
| 20260905050512 | 65 | 262 | 0.0 | 0.0 | 0.00 | 0.01 | 0.00 | 96 | 1008.9 |
| 20260905050021 | 65 | 262 | 0.0 | 0.0 | 0.00 | 0.01 | 0.00 | 95 | 1008.9 |
| 20260905045514 | 65 | 262 | 0.0 | 0.0 | 0.00 | 0.01 | 0.00 | 95 | 1008.8 |
| 20260905045012 | 65 | 262 | 0.0 | 0.0 | 0.00 | 0.01 | 0.00 | 95 | 1008.9 |
| 20260905044526 | 65 | 262 | 0.0 | 0.0 | 0.00 | 0.01 | 0.00 | 95 | 1008.9 |
| 20260905044015 | 64 | 262 | 0.0 | 0.0 | 0.00 | 0.01 | 0.00 | 95 | 1008.9 |
| 20260905043503 | 64 | 262 | 0.0 | 0.0 | 0.00 | 0.01 | 0.00 | 95 | 1008.9 |
| 20260905043003 | 64 | 262 | 0.0 | 0.0 | 0.00 | 0.01 | 0.00 | 94 | 1008.9 |
| 20260905042505 | 64 | 262 | 0.0 | 0.0 | 0.00 | 0.01 | 0.00 | 94 | 1009.0 |
| 20260905042004 | 64 | 262 | 0.0 | 0.0 | 0.00 | 0.01 | 0.00 | 94 | 1009.1 |
| 20260905041510 | 65 | 262 | 0.0 | 0.0 | 0.00 | 0.01 | 0.00 | 94 | 1009.0 |
| 20260905041019 | 65 | 262 | 0.0 | 0.0 | 0.00 | 0.01 | 0.00 | 94 | 1009.0 |
| 20260905040509 | 65 | 262 | 0.0 | 0.0 | 0.00 | 0.01 | 0.00 | 94 | 1009.0 |
| 20260905040022 | 65 | 262 | 0.0 | 0.0 | 0.00 | 0.01 | 0.00 | 94 | 1009.0 |
| 20260905035512 | 65 | 262 | 0.0 | 0.0 | 0.00 | 0.01 | 0.01 | 94 | 1008.9 |
| 20260905035011 | 65 | 262 | 0.0 | 0.0 | 0.00 | 0.01 | 0.01 | 94 | 1008.9 |
| 20260905034522 | 65 | 262 | 0.0 | 0.0 | 0.00 | 0.01 | 0.01 | 94 | 1008.9 |
| 20260905034013 | 65 | 262 | 0.0 | 0.0 | 0.00 | 0.01 | 0.01 | 94 | 1008.9 |
| 20260905033512 | 65 | 262 | 0.0 | 0.0 | 0.00 | 0.01 | 0.01 | 94 | 1008.8 |
| 20260905033043 | 65 | 262 | 0.0 | 0.0 | 0.00 | 0.01 | 0.01 | 94 | 1008.7 |
| 20260905032514 | 66 | 262 | 0.0 | 0.0 | 0.00 | 0.01 | 0.01 | 94 | 1008.6 |
| 20260905032003 | 66 | 262 | 0.0 | 0.0 | 0.00 | 0.01 | 0.01 | 94 | 1008.7 |
| 20260905031510 | 66 | 262 | 0.0 | 0.0 | 0.00 | 0.01 | 0.01 | 94 | 1008.7 |
| 20260905031007 | 66 | 262 | 0.0 | 0.0 | 0.00 | 0.01 | 0.01 | 94 | 1008.6 |
| 20260905030506 | 66 | 262 | 0.0 | 0.0 | 0.00 | 0.01 | 0.01 | 94 | 1008.6 |
| 20260905030012 | 66 | 262 | 0.0 | 0.0 | 0.00 | 0.01 | 0.01 | 94 | 1008.7 |
| 20260905025510 | 66 | 262 | 0.0 | 0.0 | 0.00 | 0.01 | 0.01 | 94 | 1008.6 |
| 20260905025009 | 67 | 262 | 0.0 | 0.0 | 0.00 | 0.01 | 0.01 | 94 | 1008.6 |
| 20260905024520 | 67 | 262 | 0.0 | 0.0 | 0.00 | 0.01 | 0.01 | 94 | 1008.6 |
| 20260905024011 | 67 | 262 | 0.0 | 0.0 | 0.00 | 0.01 | 0.01 | 94 | 1008.6 |
| 20260905023512 | 0 | 262 | 0.0 | 0.0 | 0.00 | 0.01 | 0.01 | 94 | 1008.6 |
| 20260905023047 | 0 | 262 | 0.0 | 0.0 | 0.00 | 0.01 | 0.01 | 94 | 1008.7 |
| 20260905022516 | 0 | 262 | 0.0 | 0.0 | 0.00 | 0.01 | 0.01 | 94 | 1008.6 |
| 20260905022015 | 67 | 262 | 0.0 | 0.0 | 0.00 | 0.01 | 0.01 | 94 | 1008.6 |
| 20260905021530 | 67 | 262 | 0.0 | 0.0 | 0.00 | 0.01 | 0.01 | 94 | 1008.6 |
| 20260905021015 | 67 | 262 | 0.0 | 0.0 | 0.00 | 0.01 | 0.01 | 94 | 1008.8 |
| 20260905020507 | 68 | 262 | 0.0 | 0.0 | 0.00 | 0.01 | 0.01 | 94 | 1008.9 |
| 20260905020016 | 68 | 262 | 0.0 | 0.0 | 0.00 | 0.01 | 0.01 | 94 | 1008.9 |
| 20260905015507 | 68 | 262 | 0.0 | 0.0 | 0.00 | 0.01 | 0.01 | 94 | 1009.0 |
| 20260905015008 | 68 | 262 | 0.0 | 0.0 | 0.00 | 0.01 | 0.01 | 94 | 1009.1 |
| 20260905014516 | 68 | 262 | 0.0 | 0.0 | 0.00 | 0.01 | 0.01 | 94 | 1009.1 |
| 20260905014008 | 68 | 262 | 0.0 | 0.0 | 0.00 | 0.01 | 0.01 | 94 | 1009.2 |
| 20260905013512 | 68 | 262 | 0.0 | 0.0 | 0.00 | 0.01 | 0.01 | 94 | 1009.3 |
| 20260905013024 | 68 | 262 | 0.0 | 0.0 | 0.00 | 0.01 | 0.01 | 94 | 1009.3 |
| 20260905012518 | 68 | 262 | 0.0 | 0.0 | 0.00 | 0.01 | 0.01 | 94 | 1009.3 |
| 20260905012013 | 68 | 262 | 0.0 | 0.0 | 0.00 | 0.01 | 0.01 | 94 | 1009.3 |
| 20260905011527 | 68 | 262 | 0.0 | 0.0 | 0.00 | 0.01 | 0.01 | 94 | 1009.3 |
| 20260905011016 | 68 | 262 | 0.0 | 0.0 | 0.00 | 0.01 | 0.01 | 94 | 1009.4 |
| 20260905010516 | 68 | 262 | 0.0 | 0.0 | 0.00 | 0.01 | 0.01 | 94 | 1009.4 |
| 20260905010034 | 68 | 262 | 0.0 | 0.0 | 0.00 | 0.01 | 0.01 | 94 | 1009.4 |
| 20260905005507 | 68 | 262 | 0.0 | 0.0 | 0.00 | 0.01 | 0.01 | 94 | 1009.4 |
| 20260905005006 | 68 | 262 | 0.0 | 0.0 | 0.00 | 0.01 | 0.01 | 94 | 1009.3 |
| 20260905004516 | 69 | 262 | 0.0 | 0.0 | 0.00 | 0.01 | 0.01 | 94 | 1009.3 |
| 20260905004010 | 69 | 262 | 0.0 | 0.0 | 0.00 | 0.01 | 0.01 | 94 | 1009.3 |
| 20260905003512 | 69 | 262 | 0.0 | 0.0 | 0.00 | 0.01 | 0.01 | 94 | 1009.2 |
| 20260905003019 | 69 | 262 | 0.0 | 0.0 | 0.00 | 0.01 | 0.01 | 94 | 1009.1 |
| 20260905002512 | 69 | 262 | 0.0 | 0.0 | 0.00 | 0.01 | 0.01 | 94 | 1009.1 |
| 20260905002012 | 69 | 262 | 0.0 | 0.0 | 0.00 | 0.01 | 0.01 | 94 | 1009.0 |
| 20260905001527 | 69 | 262 | 0.0 | 0.0 | 0.00 | 0.01 | 0.01 | 93 | 1008.9 |
| 20260905001016 | 69 | 262 | 0.0 | 0.0 | 0.00 | 0.01 | 0.01 | 93 | 1008.9 |
| 20260905000516 | 69 | 262 | 0.0 | 0.0 | 0.00 | 0.01 | 0.01 | 93 | 1008.8 |
| 20260905000030 | 69 | 262 | 0.0 | 0.0 | 0.00 | 0.01 | 0.01 | 93 | 1008.7 |
| 20260904235515 | 69 | 262 | 0.0 | 0.0 | 0.00 | 0.01 | 0.01 | 93 | 1008.8 |
| 20260904235017 | 70 | 262 | 0.0 | 0.0 | 0.00 | 0.01 | 0.01 | 93 | 1008.8 |
| 20260904234535 | 70 | 262 | 0.0 | 0.0 | 0.00 | 0.01 | 0.01 | 93 | 1008.7 |
| 20260904234008 | 70 | 262 | 0.0 | 0.0 | 0.00 | 0.01 | 0.01 | 93 | 1008.6 |
| 20260904233509 | 70 | 262 | 0.0 | 0.0 | 0.00 | 0.01 | 0.01 | 93 | 1008.6 |
| 20260904233012 | 70 | 262 | 0.0 | 0.0 | 0.00 | 0.01 | 0.01 | 93 | 1008.7 |
| 20260904232509 | 70 | 262 | 0.0 | 0.0 | 0.00 | 0.01 | 0.01 | 93 | 1008.6 |
| 20260904232002 | 70 | 262 | 0.0 | 0.0 | 0.00 | 0.01 | 0.01 | 93 | 1008.7 |
| 20260904231508 | 70 | 262 | 0.0 | 0.0 | 0.00 | 0.01 | 0.01 | 93 | 1008.5 |
| 20260904231006 | 70 | 262 | 0.0 | 0.0 | 0.00 | 0.01 | 0.01 | 93 | 1008.5 |
| 20260904230506 | 70 | 262 | 0.0 | 0.0 | 0.00 | 0.01 | 0.01 | 92 | 1008.4 |
| 20260904230004 | 70 | 262 | 0.0 | 0.0 | 0.00 | 0.01 | 0.01 | 92 | 1008.4 |
| 20260904225503 | 71 | 262 | 0.0 | 0.0 | 0.00 | 0.01 | 0.01 | 92 | 1008.3 |
| 20260904225004 | 71 | 262 | 0.0 | 0.0 | 0.01 | 0.01 | 0.01 | 92 | 1008.3 |
| 20260904224503 | 71 | 262 | 0.0 | 0.0 | 0.01 | 0.01 | 0.01 | 92 | 1008.4 |
| 20260904224003 | 71 | 262 | 0.0 | 0.0 | 0.01 | 0.01 | 0.01 | 91 | 1008.5 |
| 20260904223504 | 71 | 262 | 0.0 | 0.0 | 0.01 | 0.01 | 0.01 | 91 | 1008.4 |
| 20260904223007 | 71 | 262 | 0.0 | 0.0 | 0.01 | 0.01 | 0.01 | 90 | 1008.4 |
| 20260904222504 | 72 | 262 | 0.0 | 0.0 | 0.01 | 0.01 | 0.01 | 90 | 1008.3 |
| 20260904222004 | 72 | 262 | 0.0 | 0.0 | 0.01 | 0.01 | 0.01 | 90 | 1008.2 |
| 20260904221506 | 72 | 262 | 0.0 | 0.0 | 0.01 | 0.01 | 0.01 | 89 | 1008.3 |
| 20260904221003 | 73 | 262 | 0.0 | 0.0 | 0.01 | 0.01 | 0.01 | 88 | 1008.3 |
| 20260904220504 | 73 | 262 | 0.0 | 0.0 | 0.01 | 0.01 | 0.01 | 87 | 1008.4 |
| 20260904220005 | 74 | 1 | 0.0 | 0.0 | 0.01 | 0.01 | 0.01 | 87 | 1008.5 |
| 20260904215507 | 74 | 1 | 0.0 | 0.0 | 0.01 | 0.01 | 0.01 | 86 | 1008.5 |
| 20260904215004 | 74 | 335 | 0.0 | 0.0 | 0.00 | 0.00 | 0.00 | 83 | 1008.6 |
| 20260904214505 | 74 | 285 | 0.0 | 0.0 | 0.00 | 0.00 | 0.00 | 83 | 1008.1 |
| 20260904214002 | 74 | 281 | 0.0 | 0.0 | 0.00 | 0.00 | 0.00 | 82 | 1007.9 |
| 20260904213504 | 74 | 282 | 0.0 | 0.0 | 0.00 | 0.00 | 0.00 | 83 | 1008.0 |
| 20260904213009 | 75 | 282 | 0.0 | 0.0 | 0.00 | 0.00 | 0.00 | 83 | 1008.0 |
| 20260904212504 | 75 | 270 | 0.0 | 0.0 | 0.00 | 0.00 | 0.00 | 84 | 1008.2 |
| 20260904212003 | 75 | 270 | 0.0 | 0.0 | 0.00 | 0.00 | 0.00 | 83 | 1008.2 |
| 20260904211506 | 75 | 319 | 0.0 | 0.0 | 0.00 | 0.00 | 0.00 | 83 | 1008.2 |
| 20260904211004 | 75 | 302 | 0.0 | 0.0 | 0.00 | 0.00 | 0.00 | 83 | 1008.2 |
| 20260904210507 | 75 | 320 | 0.0 | 0.0 | 0.00 | 0.00 | 0.00 | 83 | 1008.2 |
| 20260904210006 | 75 | 320 | 0.0 | 0.0 | 0.00 | 0.00 | 0.00 | 83 | 1008.3 |
| 20260904205506 | 76 | 320 | 0.0 | 0.0 | 0.00 | 0.00 | 0.00 | 83 | 1008.3 |
| 20260904205003 | 76 | 320 | 0.0 | 0.0 | 0.00 | 0.00 | 0.00 | 83 | 1008.2 |
| 20260904204503 | 76 | 320 | 0.0 | 0.0 | 0.00 | 0.00 | 0.00 | 81 | 1008.3 |
| 20260904204005 | 76 | 281 | 0.0 | 0.0 | 0.00 | 0.00 | 0.00 | 81 | 1008.2 |
| 20260904203507 | 76 | 304 | 0.0 | 0.0 | 0.00 | 0.00 | 0.00 | 81 | 1008.3 |
| 20260904203006 | 76 | 300 | 0.0 | 0.0 | 0.00 | 0.00 | 0.00 | 81 | 1008.3 |
| 20260904202501 | 76 | 308 | 0.0 | 0.0 | 0.00 | 0.00 | 0.00 | 81 | 1008.1 |
| 20260904202002 | 76 | 297 | 0.0 | 0.0 | 0.00 | 0.00 | 0.00 | 81 | 1008.3 |
| 20260904201506 | 76 | 255 | 0.0 | 0.0 | 0.00 | 0.00 | 0.00 | 81 | 1008.3 |
| 20260904201006 | 76 | 255 | 0.0 | 0.0 | 0.00 | 0.00 | 0.00 | 81 | 1008.2 |
| 20260904200506 | 76 | 263 | 0.0 | 0.0 | 0.00 | 0.00 | 0.00 | 81 | 1008.2 |
| 20260904200017 | 76 | 263 | 0.0 | 0.0 | 0.00 | 0.00 | 0.00 | 80 | 1008.1 |
| 20260904195504 | 76 | 263 | 0.0 | 0.0 | 0.00 | 0.00 | 0.00 | 79 | 1008.3 |
| 20260904195004 | 76 | 267 | 0.0 | 0.0 | 0.00 | 0.00 | 0.00 | 79 | 1008.3 |
| 20260904194523 | 77 | 289 | 0.0 | 0.0 | 0.00 | 0.00 | 0.00 | 78 | 1008.3 |
| 20260904194003 | 77 | 288 | 0.0 | 0.0 | 0.00 | 0.00 | 0.00 | 79 | 1008.5 |
| 20260904193503 | 77 | 296 | 0.0 | 0.0 | 0.00 | 0.00 | 0.00 | 79 | 1008.5 |
| 20260904193006 | 78 | 293 | 0.0 | 0.0 | 0.00 | 0.00 | 0.00 | 81 | 1008.6 |
| 20260904192506 | 78 | 302 | 0.0 | 0.0 | 0.00 | 0.00 | 0.00 | 80 | 1008.6 |
| 20260904192005 | 78 | 267 | 0.0 | 0.0 | 0.00 | 0.00 | 0.00 | 78 | 1008.5 |
| 20260904191511 | 79 | 281 | 0.0 | 0.0 | 0.00 | 0.00 | 0.00 | 76 | 1008.4 |
| 20260904191008 | 79 | 281 | 0.0 | 0.0 | 0.00 | 0.00 | 0.00 | 77 | 1008.5 |
| 20260904190506 | 79 | 281 | 0.0 | 0.0 | 0.00 | 0.00 | 0.00 | 76 | 1008.3 |
| 20260904190008 | 79 | 257 | 0.0 | 0.0 | 0.00 | 0.00 | 0.00 | 75 | 1008.2 |
| 20260904185510 | 79 | 345 | 0.0 | 0.0 | 0.00 | 0.00 | 0.00 | 76 | 1008.2 |
| 20260904185008 | 79 | 305 | 0.0 | 0.0 | 0.00 | 0.00 | 0.00 | 75 | 1008.2 |
| 20260904184507 | 79 | 41 | 0.0 | 0.0 | 0.00 | 0.00 | 0.00 | 76 | 1008.2 |
| 20260904184008 | 79 | 1 | 0.0 | 0.0 | 0.00 | 0.00 | 0.00 | 73 | 1008.1 |
| 20260904183503 | 79 | 1 | 0.0 | 0.0 | 0.00 | 0.00 | 0.00 | 70 | 1008.1 |
| 20260904183008 | 79 | 1 | 0.0 | 0.0 | 0.00 | 0.00 | 0.00 | 70 | 1008.2 |